Regional Weather Roundup
Issued by NWS

Home | Current Version | Previous Version | Graphics & Text | Print | Product List | Glossary On
Versions: 1 2 3 4 5 6 7 8 9 10 11 12 13 14 15 16 17 18 19 20 21 22 23 24 25 26 27 28 29 30 31 32 33 34 35 36 37 38 39 40 41 42 43 44 45 46 47 48 49 50
728
ASUS45 KSLC 271610
RWRUT

UTAH REGIONAL WEATHER ROUNDUP
NATIONAL WEATHER SERVICE SALT LAKE CITY UT
1000 AM MDT THU APR 27 2017

UTZ001>011-023>025-271700-

NORTHERN UTAH

CITY           SKY/WX    TMP DP  RH WIND       PRES   REMARKS
BRIGHAM CITY   CLOUDY    43  25  48 NE3       29.83S
DUGWAY         MOSUNNY   46  26  45 N9        29.86S
HILL AFB       PTSUNNY   41  28  61 SW7       29.82S
LOGAN          CLOUDY    42  27  55 W8        29.81F
OGDEN          MOSUNNY   43  27  53 NW12      29.82S
SALT LAKE CITY MOSUNNY   46  29  51 NW20G28   29.83S
TOOELE VALLEY  MOSUNNY   46  28  49 NW16G22   29.86F
WENDOVER       CLOUDY    49  24  37 N17G23    29.86R
HEBER CITY     CLOUDY    37  28  70 E9        29.77S WCI  31
WEST JORDAN    MOSUNNY   47  32  56 W18G26    29.85S

$$

UTZ011>015-024>027-271700-

CENTRAL/NORTHEAST UTAH

CITY           SKY/WX    TMP DP  RH WIND       PRES   REMARKS
PROVO AIRPORT  MOSUNNY   45  24  43 N22G30    29.84R
MOAB/CANYONLAN PTSUNNY   54  32  43 W16G23    29.69F
DELTA          SUNNY     45  28  53 N12G22    29.87S
PRICE          SUNNY     43  25  49 NW21G37   29.73S
ROOSEVELT      SUNNY     48  19  32 W20G33    29.69S
VERNAL         PTSUNNY   45  37  73 SE6       29.65R

$$

UTZ013>016-019>022-027-271700-

SOUTHERN UTAH

CITY           SKY/WX    TMP DP  RH WIND       PRES   REMARKS
BRYCE CANYON   PTSUNNY   38  31  76 NW10      29.86R WCI  31
CEDAR CITY     LGT RAIN  47  38  71 NE8       29.86R
MILFORD        PTSUNNY   50  37  61 N12       29.85S
ST GEORGE      MOSUNNY   67  33  28 NW16G22   29.79R
HANKSVILLE     MOSUNNY   54  28  37 NW17G25   29.77F
BLANDING       CLOUDY    49  32  52 NW21G30   29.82R

$$

REGIONAL REPORTS     COLORADO/ARIZONA

CITY           SKY/WX    TMP DP  RH WIND       PRES   REMARKS
CRAIG, CO      CLOUDY    41  29  62 NW10      29.67S
GRAND JUNCTION CLOUDY    49  42  77 NW12      29.68S
RIFLE, CO      MOSUNNY   49  35  58 W17G26    29.65F
MONTROSE, CO   MOSUNNY   47  37  68 N8        29.71R
CORTEZ, CO     PTSUNNY   45  38  76 CALM      29.74F
COLORADO CITY    N/A     61  32  33 NW17G26   29.85R
PAGE, AZ       PTSUNNY   62  34  35 NW15G22   29.74R
GRAND CANYON   SUNNY     55  31  39 W14G24    29.85S
KINGMAN, AZ    SUNNY     70  32  24 N14       29.80R
FLAGSTAFF, AZ  MOSUNNY   54  35  48 W14G23    29.87R

$$

REGIONAL REPORTS    NEVADA/IDAHO/WYOMING

CITY           SKY/WX    TMP DP  RH WIND       PRES   REMARKS
LAS VEGAS, NV  MOSUNNY   74  23  15 N23       29.75F
ELY, NY        MOSUNNY   42  27  55 N9        29.89S
ELKO, NV       CLOUDY    41  26  55 W5        29.91S
POCATELLO, ID  FLURRIES  38  34  85 W25       29.80R WCI  27
BURLEY, ID     PTSUNNY   41  30  65 W22G36    29.83R
FORT BRIDGER,  PTSUNNY   34  26  72 W31G39    29.73S WCI  20
EVANSTON, WY   FLURRIES  32  26  78 W23G30    29.74R WCI  19
ROCK SPRINGS,  PTSUNNY   36  25  64 W35G44    29.64S WCI  22

$$




USA.gov is the U.S. government's official web portal to all federal, state and local government web resources and services.